Location: St. Louis
(38.6270°N, 90.1994°W)
Time: 14:49:19
(UTC-06:00)

Vanguard 1 - Pass Details

Date: 09 December 2021
Orbit: 652 x 3830 km, 34.2° (Epoch: 19 January)

Event Time Altitude Azimuth Distance (km) Brightness Sun altitude
Rises 00:27:57 0° 260° (W) 7,060 - -72.6°
Reaches altitude 10° 00:32:10 10° 259° (W) 6,324 - -72.2°
Maximum altitude 00:54:39 79° 178° (S) 3,869 - -69.5°
Exits shadow 01:07:03 37° 100° (E) 4,672 13.3 -67.7°
Drops below altitude 10° 01:15:47 10° 96° (E) 6,011 14.2 -66.4°
Sets 01:19:40 0° 96° (E) 6,716 14.6 -65.7°
